Theta_e
361 363 361 365 364 362 353 346 325 332 321 310 313 314 313 323 323 322 322 326 321 328 331 332 332 331 329 329 332 335 335 332 331 321 320 335 352 351 356 356 356 357 357 359 361 360 360 361 363 363 364 364 365 365 365 365 366 366 366 366 366 366 365 365 365 365 363 364 364 365 365 364 365 365 365 365 365 365 365 365 365 365 365 365 366 366 366 365 366 365 365 365 366 366 366 365 365
356 357 361 365 364 354 340 345 327 314 314 309 309 314 315 320 321 319 319 322 324 327 331 333 333 334 335 335 336 336 334 336 338 337 343 348 352 356 358 357 356 355 357 360 361 361 360 361 361 362 362 363 365 365 365 366 366 366 366 367 366 366 366 366 365 366 366 366 367 365 364 365 365 366 366 366 366 365 365 365 365 365 365 366 366 366 366 365 366 365 365 365 365 365 364 364 364
353 356 358 361 355 350 344 339 314 312 308 306 311 315 322 319 319 321 323 325 328 331 333 334 335 334 332 335 332 330 327 341 341 344 342 350 347 352 357 357 358 358 359 361 361 361 361 362 361 361 363 362 362 364 366 366 366 366 366 367 368 368 368 367 364 367 367 367 366 367 367 367 367 366 366 366 366 366 366 366 366 366 366 366 366 366 366 366 366 366 366 366 363 364 363 363 363
353 355 356 352 342 347 334 336 320 312 308 309 310 317 317 318 321 325 328 329 331 333 332 330 327 334 332 328 330 337 334 336 343 342 342 348 348 354 357 357 360 360 360 361 361 362 362 362 362 362 363 362 362 363 365 366 366 366 367 367 368 367 367 367 367 366 366 366 366 367 367 368 367 367 366 366 366 366 366 365 366 366 366 366 366 366 367 367 366 367 367 366 365 364 362 363 363
351 356 360 349 341 336 328 322 316 316 310 313 311 318 320 321 320 320 320 324 328 331 331 331 330 335 335 333 335 328 332 342 345 347 346 350 356 354 356 357 358 358 360 361 361 361 361 362 363 363 363 363 362 363 365 366 366 366 365 367 367 367 367 367 366 366 366 366 366 366 366 367 367 367 367 366 366 366 366 366 366 366 365 365 365 366 366 366 366 366 366 365 364 364 363 362 362
348 350 358 346 339 344 332 318 315 314 317 319 316 318 322 323 323 325 325 326 329 331 333 333 330 331 331 334 337 332 341 335 344 346 348 348 355 357 356 358 357 357 360 361 361 360 360 362 363 363 363 363 364 362 363 365 365 366 365 366 366 367 366 366 366 365 365 365 366 366 366 366 366 367 367 366 366 366 366 366 366 365 365 365 365 365 365 366 366 366 365 364 363 362 361 361 361
350 346 343 347 343 339 318 314 314 315 317 321 317 318 320 321 322 321 319 318 321 326 331 329 332 332 328 333 336 340 346 347 345 346 351 350 356 358 358 357 357 357 360 360 361 360 360 361 363 364 364 364 364 364 364 365 365 365 365 366 366 367 366 366 366 365 365 365 365 365 366 366 366 366 366 366 366 366 366 366 366 365 364 365 365 365 365 365 364 364 364 363 362 362 362 361 360
352 340 337 327 322 325 314 313 313 317 318 322 322 321 322 323 323 322 323 323 322 323 328 331 332 330 329 340 331 342 348 350 349 351 352 352 354 356 358 357 356 356 357 361 363 362 365 361 361 363 364 365 365 365 365 365 364 365 365 365 366 366 366 366 366 366 365 365 365 365 365 365 365 365 365 365 365 365 365 365 365 364 364 364 364 364 364 363 363 361 361 362 362 362 361 361 360
342 338 339 328 319 319 315 314 315 320 320 324 324 326 329 322 322 321 320 322 320 322 325 328 331 327 330 334 334 342 345 349 351 354 353 353 354 356 356 357 355 356 360 361 363 363 361 361 362 363 365 365 365 365 365 365 364 366 366 366 366 366 366 366 365 365 365 365 365 365 365 364 365 365 365 365 364 363 364 364 364 364 363 363 363 363 363 363 362 361 361 360 360 360 360 360 361
337 334 326 321 320 314 313 314 315 318 320 323 322 321 323 325 325 326 323 323 325 327 328 332 333 329 334 330 334 339 343 350 351 351 353 352 353 354 356 357 358 357 360 361 361 362 362 366 363 363 364 365 365 365 364 365 366 365 365 366 366 365 365 365 365 365 364 364 364 364 364 364 364 364 364 364 364 364 364 364 363 363 363 363 364 363 363 363 363 365 365 365 364 361 357 358 359
331 335 332 323 314 315 312 313 316 320 321 322 322 325 326 327 325 323 325 325 327 323 326 330 328 330 332 332 335 345 348 349 348 348 353 354 354 353 354 358 358 356 357 360 361 362 362 363 367 364 365 365 365 365 365 365 366 366 366 366 365 365 365 365 365 364 365 365 364 364 364 364 364 364 364 364 364 364 364 363 363 364 364 364 364 363 363 363 364 363 363 363 362 362 362 362 361
329 324 326 314 315 314 315 314 316 318 321 323 322 324 324 324 325 321 322 321 323 325 327 333 329 334 329 331 334 342 346 347 347 351 352 354 353 354 354 354 355 357 357 359 362 361 362 364 365 367 366 366 365 366 366 366 365 365 366 366 365 365 366 365 365 365 364 364 364 364 364 364 364 364 364 364 364 364 364 363 363 363 364 363 364 362 361 363 364 362 362 362 361 361 361 361 361
327 324 319 317 317 315 317 317 316 319 319 319 322 327 329 325 323 325 325 327 328 326 327 332 333 334 327 330 337 342 342 345 348 350 351 351 352 353 355 354 355 357 359 362 361 361 363 363 363 365 365 366 366 366 365 367 366 366 366 366 366 365 365 365 365 364 364 365 364 364 365 365 365 364 365 364 364 364 363 364 364 363 363 362 362 362 362 363 363 362 361 361 360 360 361 362 361
327 325 320 314 319 316 316 316 320 317 317 322 326 327 329 328 327 327 328 324 323 323 329 333 335 335 329 332 334 338 341 347 349 351 351 352 352 353 354 355 356 356 358 361 361 362 361 361 362 364 365 365 365 365 365 366 366 366 366 366 365 365 365 365 365 365 364 364 364 365 365 365 365 365 365 365 364 364 363 362 361 361 362 362 362 362 361 363 363 362 361 360 360 360 361 361 362
325 326 320 319 315 316 318 314 317 317 318 325 325 326 328 332 332 330 325 322 325 332 334 337 335 329 324 330 330 336 341 347 350 351 351 351 352 353 355 355 355 356 357 359 360 360 361 362 362 365 366 364 365 365 365 365 366 366 366 365 365 365 364 364 364 365 364 364 365 365 365 365 365 365 365 363 363 363 364 362 362 361 361 362 361 361 362 363 362 361 361 361 361 361 362 362 362
328 326 320 319 312 314 314 316 319 317 318 326 329 330 327 327 330 326 327 329 330 334 333 327 336 327 332 333 335 340 344 348 351 350 350 351 353 352 352 354 355 355 358 358 358 359 359 360 363 364 364 364 365 364 365 365 366 366 366 366 365 365 365 364 364 364 365 365 365 366 366 366 365 363 364 361 362 362 363 362 361 362 362 362 363 363 362 363 362 362 362 361 362 362 362 362 362
330 326 316 315 310 313 316 316 318 315 322 324 330 329 326 326 331 330 333 334 331 333 332 333 330 335 333 337 340 343 345 349 351 349 348 350 351 350 351 353 353 353 354 358 361 360 359 361 362 362 364 364 364 364 364 366 366 367 366 366 366 366 365 365 365 365 365 365 365 365 365 365 367 365 365 362 362 362 364 363 362 361 361 362 363 363 363 362 363 364 363 363 363 363 362 363 362
327 318 315 312 313 313 319 320 321 324 322 325 327 327 325 323 328 331 336 334 332 332 331 332 333 336 339 340 343 345 347 347 349 348 345 345 349 347 347 351 352 351 353 355 360 360 359 361 362 364 363 366 365 364 364 366 367 367 366 366 366 366 366 366 366 365 366 366 365 366 367 366 367 370 368 365 365 364 362 362 363 363 363 363 363 364 364 363 363 363 364 363 363 362 363 360 361
321 317 315 311 315 317 321 322 324 324 322 327 326 330 328 326 329 333 329 329 329 328 331 333 333 337 339 341 343 343 345 346 347 347 345 343 343 344 346 348 350 351 352 354 357 360 361 361 364 363 363 365 364 365 365 365 367 367 366 367 365 366 367 366 367 366 366 366 365 367 370 366 362 366 369 364 363 362 360 361 363 364 361 359 358 360 361 361 361 361 361 363 364 363 360 360 361
321 317 312 314 320 322 325 326 325 326 327 324 327 327 327 328 331 334 328 328 330 328 328 331 331 331 336 339 341 342 344 344 345 344 344 345 344 343 345 347 349 351 352 354 357 361 360 361 363 366 364 368 365 361 364 365 364 367 366 365 367 366 367 366 365 365 367 364 363 367 365 365 364 370 366 366 367 365 364 362 363 363 361 359 358 359 363 363 363 361 362 360 359 361 360 361 357
320 318 315 317 320 318 322 325 325 327 329 326 325 327 325 329 326 331 326 323 327 330 332 332 331 333 335 338 339 341 342 342 342 343 343 345 345 345 346 349 348 350 353 354 357 359 360 360 361 363 367 366 364 362 363 361 364 362 365 366 366 368 363 366 365 364 365 364 366 368 363 364 364 364 363 365 365 366 364 362 364 358 359 359 362 361 362 361 363 362 361 359 360 360 360 359 359
321 318 321 321 321 321 325 326 327 326 327 325 326 325 325 331 330 330 328 326 323 330 333 336 335 336 336 336 338 340 340 341 342 342 342 343 344 346 346 348 351 350 351 352 354 356 358 359 361 362 363 366 365 362 362 363 365 365 361 364 361 362 366 363 367 366 362 361 362 364 364 364 362 360 363 364 361 362 364 364 361 360 355 357 362 357 360 363 361 361 362 359 360 361 359 358 356
314 319 322 324 324 323 325 324 324 325 327 326 325 327 331 330 327 331 329 326 330 337 336 337 337 338 338 338 338 338 339 339 340 341 343 341 343 344 346 347 346 345 348 349 354 356 357 359 362 363 362 366 366 365 365 362 361 365 361 362 361 362 362 360 360 361 361 359 359 361 360 363 363 361 363 361 359 357 356 359 360 359 356 357 364 359 358 361 362 363 360 360 359 355 357 356 356
321 316 321 320 324 323 325 325 327 326 325 325 328 331 328 328 326 333 332 336 336 337 337 338 338 338 338 336 338 337 338 339 339 342 341 342 342 341 343 345 346 350 350 348 352 354 355 355 362 364 363 363 364 367 366 364 366 360 359 363 361 362 362 361 360 358 358 355 358 362 363 366 361 358 358 358 360 357 356 357 357 354 354 358 364 360 356 358 369 359 359 357 356 353 352 352 355
318 319 322 323 324 324 326 325 325 325 325 327 330 326 326 328 328 331 330 334 335 337 337 337 337 337 337 337 337 338 339 339 340 340 340 343 345 342 343 346 347 348 347 348 350 352 354 357 360 360 361 365 362 365 364 365 366 365 360 362 363 365 361 362 358 356 354 356 358 364 366 360 362 357 355 356 354 355 357 357 355 359 357 358 358 357 359 358 355 357 363 361 359 356 353 350 351
321 320 322 323 323 326 324 324 326 326 328 329 326 324 326 329 332 329 331 333 335 336 336 336 336 336 335 337 338 339 340 339 340 339 340 343 341 342 343 344 346 346 347 348 350 350 353 355 356 357 360 363 362 360 362 362 365 363 364 366 365 368 364 361 357 353 357 357 356 365 367 365 359 353 354 352 350 354 359 358 359 359 358 361 360 358 362 362 361 358 357 358 354 358 353 353 353
323 321 322 322 324 324 325 324 324 325 326 328 324 323 324 328 327 324 333 334 335 335 335 336 335 334 336 337 338 339 340 339 341 339 342 342 341 342 342 343 345 346 348 348 349 350 352 351 353 357 360 367 365 363 362 364 366 363 365 365 363 364 363 367 367 361 355 353 362 359 363 370 367 361 361 363 362 364 361 359 359 359 360 362 362 359 359 356 356 357 359 359 362 358 355 358 354
322 323 323 322 323 325 326 325 323 325 324 327 326 324 327 327 327 325 330 335 336 333 333 334 335 335 336 338 339 342 343 343 343 341 340 340 340 342 343 344 345 347 346 348 350 354 353 351 351 354 357 364 367 360 364 363 365 363 363 369 363 365 368 366 363 364 368 367 366 366 371 368 368 365 367 365 362 363 362 361 363 362 360 364 362 360 359 358 357 357 357 358 358 358 354 352 355
322 323 318 319 323 322 323 322 324 324 322 327 328 323 320 324 321 328 333 335 336 334 332 334 335 335 338 340 340 342 342 341 343 340 342 343 343 344 343 346 345 346 347 349 351 352 350 352 354 355 358 365 365 361 364 365 367 361 365 365 363 357 365 365 361 360 364 367 370 368 369 368 367 365 367 364 364 363 363 365 361 361 363 365 365 363 361 359 357 354 354 356 355 353 353 352 351
324 322 319 318 319 318 324 326 325 323 324 326 326 312 317 321 325 328 332 335 333 333 333 334 334 336 337 339 339 342 343 343 343 342 343 344 344 344 344 345 347 347 348 350 355 350 352 352 352 355 357 361 364 362 366 363 364 364 367 364 367 364 357 357 361 359 365 368 371 369 369 370 369 372 367 366 365 361 360 362 361 360 364 363 364 366 362 361 358 356 352 353 353 352 349 351 352
317 319 320 316 314 314 323 324 323 321 325 327 325 313 315 322 326 328 330 334 334 332 333 334 335 335 337 337 338 341 341 345 343 345 343 345 344 345 345 349 349 352 351 351 352 354 354 356 355 355 357 361 363 365 365 365 363 361 367 365 370 362 363 357 353 359 364 364 365 368 370 370 366 369 368 366 362 363 358 357 361 362 359 358 358 362 364 362 359 357 356 352 353 352 350 351 353
319 315 311 317 314 315 320 325 323 319 324 328 322 314 316 321 325 330 330 330 333 332 333 334 334 335 335 336 337 339 340 344 344 345 344 344 345 348 349 352 353 352 356 355 352 355 354 357 362 355 359 361 363 366 366 367 365 370 368 364 365 363 360 357 363 364 361 366 368 369 366 366 365 364 364 365 361 362 359 360 366 363 358 356 360 360 361 359 360 358 356 353 350 348 349 350 353
317 315 312 313 314 315 317 321 324 325 324 325 322 314 318 320 326 329 331 330 330 330 331 334 335 335 337 336 338 341 340 343 345 345 346 346 350 350 352 354 354 358 355 356 356 358 360 358 363 357 357 359 364 365 367 364 365 365 365 364 360 366 362 360 363 364 364 365 365 364 367 370 365 365 363 363 363 363 362 360 359 361 363 360 358 360 360 360 359 356 357 355 353 350 350 349 349
313 315 312 315 313 315 314 320 322 325 321 319 321 318 319 321 326 328 329 330 329 328 329 334 335 334 337 339 337 341 341 344 343 347 347 349 352 354 355 356 356 359 359 358 359 360 360 362 362 363 363 358 365 366 367 366 368 369 366 366 367 367 366 363 363 365 364 368 367 364 364 367 367 366 364 365 363 362 360 358 360 361 362 361 358 358 359 359 359 358 355 358 356 353 352 350 349
310 311 310 312 315 315 315 315 318 323 322 319 319 319 320 321 325 326 329 330 328 327 328 332 333 335 338 336 338 341 343 342 344 348 349 354 352 354 355 356 357 359 359 358 362 364 364 364 364 365 360 360 359 366 368 367 368 368 365 367 364 366 368 371 366 366 361 365 359 363 363 362 361 362 364 366 363 360 360 361 359 360 362 362 361 359 358 358 358 357 355 354 356 356 353 353 353
313 313 312 313 311 313 315 319 322 323 318 317 318 315 319 320 322 326 327 330 328 327 330 329 330 332 336 336 337 339 339 340 347 350 352 352 353 354 355 354 357 358 357 362 363 362 364 364 364 367 367 360 363 367 366 362 365 363 365 368 363 362 366 364 367 368 365 359 361 360 361 361 364 363 363 364 365 364 362 362 359 360 361 360 359 356 356 356 355 353 352 353 354 354 355 353 353
316 315 314 313 313 314 320 321 322 323 319 316 318 319 320 320 322 324 326 329 327 326 327 328 330 330 330 336 339 340 339 339 347 348 349 353 351 353 356 355 356 356 358 362 360 362 365 362 364 362 366 367 368 367 364 365 362 360 358 358 360 364 362 362 360 365 359 364 362 365 363 364 363 363 363 362 362 363 362 362 361 360 361 357 357 355 354 355 357 356 355 355 353 351 350 351 351
314 313 312 312 313 312 317 317 322 323 318 316 320 319 320 321 322 323 326 326 325 324 326 328 328 330 331 335 337 337 341 340 344 345 344 348 347 353 353 353 357 358 361 362 362 364 367 367 365 363 365 368 368 367 365 367 365 362 358 359 362 360 360 361 355 359 358 355 362 365 363 365 366 365 364 363 363 362 361 359 360 361 359 357 359 355 355 355 354 354 353 352 354 350 347 348 348
315 312 311 311 311 315 317 318 322 322 318 317 319 318 319 322 322 324 324 324 327 326 326 327 329 329 333 333 337 338 336 339 339 343 344 345 346 349 352 352 354 356 358 360 363 363 363 363 365 368 364 367 366 365 365 365 365 366 363 363 360 358 360 359 353 353 355 351 358 360 363 365 365 361 360 362 360 360 362 362 360 360 358 358 359 358 353 349 351 350 349 345 343 348 348 349 349
312 311 311 308 313 311 309 316 319 321 317 315 319 316 322 322 324 324 325 324 327 328 328 328 329 329 331 332 335 337 335 339 338 342 343 344 344 345 349 351 354 355 359 361 362 364 366 366 367 365 365 365 365 364 365 364 365 362 363 365 354 356 354 355 355 358 357 354 356 350 357 354 356 357 355 354 356 356 356 355 354 356 355 356 357 354 355 355 349 347 346 348 346 342 344 343 348
312 312 311 310 311 313 313 314 317 319 319 319 318 316 317 320 319 321 325 325 325 326 328 328 330 331 332 333 335 337 336 340 340 339 341 341 345 345 349 353 352 353 358 359 361 363 362 362 365 365 365 365 365 365 365 365 364 363 361 359 357 360 357 358 353 355 349 348 341 349 346 354 355 356 354 354 353 355 356 356 355 354 355 355 355 356 356 351 352 347 348 349 348 344 340 343 346
310 312 312 313 314 313 314 317 315 312 311 315 315 307 309 320 319 320 324 323 323 325 326 326 331 330 331 331 333 336 337 342 342 341 340 340 341 347 351 353 352 353 357 362 365 366 362 364 365 366 366 366 365 364 361 366 358 360 363 358 354 358 353 343 343 345 345 344 338 342 347 351 353 352 355 355 352 352 354 353 354 353 353 354 353 355 355 354 349 349 350 348 346 348 343 339 338
308 309 314 313 314 313 314 314 313 308 305 313 316 307 305 318 316 319 328 324 322 324 325 324 330 333 331 331 333 334 335 337 340 341 340 338 342 345 350 353 353 352 356 360 360 363 364 365 365 364 364 362 358 356 355 365 353 363 352 348 350 351 345 359 356 350 349 350 350 349 352 352 354 350 350 350 351 352 354 355 354 353 352 353 355 350 349 350 352 351 351 350 350 347 342 337 339
307 314 314 314 313 312 313 313 312 310 315 315 315 312 306 310 318 324 327 322 324 323 323 324 326 330 329 331 330 335 334 338 340 339 340 341 343 344 348 353 353 350 356 359 358 361 364 364 362 359 358 356 356 355 357 358 360 356 351 347 356 349 347 347 352 350 354 361 354 348 351 354 355 354 353 354 351 350 354 354 354 354 354 353 354 351 350 351 353 353 350 350 350 348 344 341 339
310 315 315 313 313 313 312 312 311 311 310 306 311 314 307 307 317 323 325 321 322 322 322 324 327 328 330 331 330 334 334 338 338 337 337 337 344 346 351 353 353 355 356 356 360 361 362 360 357 356 355 355 355 357 357 355 360 359 357 357 353 352 347 347 349 349 350 350 348 350 351 351 353 356 354 352 352 354 354 353 352 352 352 351 355 352 352 352 351 349 350 350 347 346 345 345 343
314 317 317 316 315 314 313 310 310 311 309 304 309 311 305 306 319 319 324 321 318 319 323 325 327 328 330 331 332 332 335 340 338 338 339 339 343 344 350 353 354 353 356 361 361 360 356 355 354 354 354 355 356 356 358 354 352 352 348 349 346 355 356 353 349 348 349 353 347 349 350 350 353 352 353 353 354 352 352 353 352 349 349 349 353 350 349 349 348 349 350 349 348 348 348 347 345
317 316 314 313 312 312 312 311 310 309 302 306 309 311 309 303 311 315 313 315 319 321 323 326 329 328 329 332 332 332 335 336 338 338 340 343 345 348 350 352 355 356 357 359 358 356 350 352 353 354 355 358 357 355 354 353 353 350 354 347 341 342 343 346 347 344 349 347 347 347 347 349 349 352 349 350 351 351 353 351 345 347 349 350 352 352 351 349 346 347 350 349 350 347 348 348 346
315 313 312 311 313 312 311 309 310 302 301 309 311 311 312 302 308 314 320 321 322 323 321 323 324 327 329 332 331 332 336 337 338 338 339 343 348 348 350 352 354 357 358 357 356 351 350 352 353 353 354 356 355 354 354 353 353 354 349 346 347 349 343 343 344 343 345 345 345 347 345 346 348 350 352 350 349 343 350 351 350 349 350 350 350 351 350 350 347 349 349 347 345 345 346 345 343
313 312 311 305 304 304 300 304 300 300 300 309 312 312 308 307 312 316 318 323 325 323 323 324 326 328 329 330 332 333 337 336 338 341 342 343 345 346 349 352 355 357 357 357 352 345 348 353 353 353 352 355 354 354 353 354 353 353 353 351 348 355 351 347 350 344 346 346 346 344 344 344 349 346 349 347 345 347 350 348 348 350 350 350 350 351 350 350 351 349 348 346 347 344 346 343 341
311 309 309 305 300 299 296 301 303 303 307 311 309 312 305 311 313 319 317 320 321 323 324 324 328 328 329 331 333 332 333 335 338 339 340 344 347 346 350 352 355 356 357 354 350 348 350 351 353 353 351 354 354 355 354 354 354 354 354 350 355 356 350 352 350 345 349 344 345 344 344 344 346 344 344 347 346 345 346 346 347 347 349 349 351 351 350 348 349 349 348 348 345 347 348 347 344
311 313 310 307 305 302 297 299 298 300 303 308 312 307 305 305 309 319 320 323 323 323 323 329 330 331 333 331 333 333 334 337 340 341 340 345 347 348 350 353 355 356 355 350 348 351 352 352 353 353 353 353 353 354 354 353 354 353 353 350 352 351 355 354 356 352 348 346 344 344 345 345 345 347 350 348 349 348 347 348 347 347 348 348 349 349 349 351 349 346 347 345 346 347 345 346 344
313 313 312 308 307 312 302 305 303 303 303 303 308 306 312 312 319 321 322 320 324 324 324 325 330 327 331 333 333 333 334 334 338 340 341 346 348 350 351 354 356 355 354 349 349 352 351 353 353 353 354 352 352 353 354 354 353 354 353 352 349 348 350 354 351 349 348 349 348 346 347 347 350 349 348 349 346 347 348 346 347 346 348 346 348 349 348 346 347 345 345 344 343 344 343 342 342
310 311 306 309 315 312 308 309 309 308 305 302 312 309 311 316 317 319 320 319 320 321 321 321 325 325 333 334 337 337 336 336 340 341 342 347 348 351 352 356 355 352 351 347 350 352 352 354 352 353 354 352 352 354 354 352 353 352 352 350 349 346 345 344 345 344 341 345 346 347 347 347 347 348 347 349 348 348 348 346 346 345 346 347 347 348 348 348 348 345 343 344 343 343 345 344 344
313 306 310 315 317 314 311 301 306 302 299 302 306 304 307 307 304 320 317 317 318 319 319 319 326 326 325 330 337 337 337 340 343 345 346 348 348 348 352 357 354 352 350 349 352 353 354 354 353 352 352 352 353 353 353 352 351 351 351 350 349 348 346 344 343 344 346 346 345 346 347 347 347 346 344 345 347 346 347 346 346 346 346 345 346 345 346 347 346 347 345 346 345 345 344 345 345
313 311 317 308 304 302 309 308 299 299 298 301 305 307 306 308 310 313 314 315 317 319 323 320 321 323 325 326 330 339 340 342 342 342 343 345 347 346 350 353 353 353 352 350 352 352 353 353 353 350 351 353 353 351 352 352 353 350 350 350 349 350 349 348 345 347 350 343 342 343 344 348 345 348 349 350 348 345 345 346 346 344 344 344 345 344 347 346 346 345 344 344 344 344 344 343 343
317 317 313 316 311 308 306 307 307 306 298 301 302 305 302 315 312 314 314 318 322 319 320 318 320 324 327 330 328 334 341 338 336 339 338 340 344 344 346 349 351 352 350 348 347 349 349 350 352 351 351 355 354 353 352 351 351 352 350 352 350 349 349 347 347 347 346 344 344 341 342 340 347 345 344 344 344 344 343 342 339 340 341 341 343 343 343 344 345 344 344 344 344 344 343 342 341
309 309 308 311 310 314 311 310 306 303 301 301 300 299 306 315 319 318 318 321 322 321 322 327 325 325 325 329 330 338 341 339 339 340 339 340 345 346 346 347 349 350 349 346 347 347 348 349 348 346 350 350 349 350 350 351 352 352 351 349 348 348 347 346 346 346 346 346 346 346 343 342 344 345 345 343 343 345 345 342 341 343 342 344 344 344 345 345 344 344 344 343 342 342 340 340 341
310 309 307 309 308 306 303 302 309 308 304 298 300 300 308 315 322 321 319 321 319 321 322 325 324 321 332 333 330 339 339 342 342 343 339 337 340 346 346 345 346 344 343 346 347 347 347 346 345 344 345 346 346 348 350 352 352 352 349 349 349 347 347 348 345 347 346 345 344 344 346 347 342 344 346 342 345 342 343 344 341 342 344 343 344 345 342 344 343 342 341 340 340 340 339 338 339
Wind_Speed
7 9 9 11 9 9 6 2 5 4 4 9 9 8 11 11 11 12 12 10 11 12 13 15 14 14 14 13 18 17 15 11 8 6 8 7 7 9 11 14 15 14 15 13 13 12 12 11 14 14 15 16 16 15 16 17 17 17 17 17 17 17 17 16 16 16 16 16 16 16 16 16 16 16 15 15 15 14 14 14 13 13 12 12 12 12 12 13 12 12 12 11 11 11 11 11 11
8 10 11 10 9 5 5 7 5 8 8 11 12 11 12 12 12 13 14 14 10 10 12 14 17 17 19 18 16 22 21 19 20 16 14 12 13 11 12 14 14 15 14 12 12 12 12 13 15 15 14 13 12 14 16 16 16 16 16 16 15 16 16 15 15 15 15 15 15 15 15 16 16 15 14 14 14 14 14 13 13 12 12 11 12 12 12 12 12 12 11 11 11 11 10 10 9
9 9 8 8 8 7 8 3 1 7 10 11 11 11 11 14 15 14 15 14 12 11 13 14 14 14 18 17 18 19 14 19 23 18 14 17 14 10 16 15 13 14 14 10 11 11 11 12 15 14 15 14 11 11 15 14 15 15 15 15 14 14 14 14 14 14 14 14 14 14 14 15 14 13 13 13 13 13 13 13 12 12 11 11 12 12 12 12 12 11 11 10 10 10 9 9 8
10 11 6 1 4 4 4 4 3 7 10 10 10 12 13 13 13 12 11 13 12 12 11 13 13 12 16 19 18 18 16 13 20 18 11 10 11 10 10 15 14 12 12 10 10 10 10 13 16 16 15 15 12 9 14 14 14 15 15 14 14 13 14 13 13 13 13 13 13 14 14 14 13 13 13 13 13 13 12 12 11 11 11 11 11 11 11 11 11 11 10 10 9 9 8 8 7
9 9 10 2 2 3 4 3 7 7 10 8 11 11 13 13 14 15 13 12 13 13 13 13 13 14 16 16 11 9 12 16 16 15 12 13 17 15 14 16 14 13 12 12 11 11 11 14 14 16 15 15 13 9 11 13 13 13 14 13 13 13 13 13 13 13 13 12 13 13 13 12 12 12 12 12 12 12 12 11 11 10 10 10 11 10 10 10 10 10 10 9 9 8 7 7 6
11 10 9 5 5 4 7 5 10 11 11 10 10 11 14 13 14 12 13 15 15 14 15 15 13 13 13 14 9 12 12 9 16 16 16 16 21 20 17 15 13 13 13 12 12 10 12 14 13 14 14 15 14 11 8 13 13 13 13 13 13 13 12 12 12 12 12 12 12 11 11 11 11 11 11 11 11 11 11 11 10 10 10 10 10 9 10 10 10 9 9 8 7 7 6 5 5
5 7 1 6 6 3 3 10 11 12 13 12 12 12 13 13 13 15 15 15 15 16 14 16 17 15 12 10 16 14 15 15 13 16 16 20 21 20 18 15 15 15 14 12 12 11 14 16 14 14 15 15 15 13 11 13 12 13 13 12 12 12 12 12 12 12 12 11 11 11 10 10 10 10 11 11 11 10 10 10 9 9 9 9 9 9 9 9 9 9 8 7 6 6 5 4 4
3 4 4 7 5 5 8 11 11 10 12 13 12 14 11 12 13 13 12 10 12 12 13 14 15 17 19 14 15 13 16 15 19 21 21 19 19 19 18 16 17 16 15 13 12 11 16 17 17 14 15 14 14 13 11 11 12 12 12 12 12 12 12 12 11 11 11 11 10 10 10 10 10 10 10 10 10 9 10 9 9 8 8 8 8 8 8 8 7 7 7 7 6 5 4 4 3
3 2 1 1 7 5 9 12 13 12 13 11 12 12 14 17 16 14 15 13 13 14 14 15 14 14 12 17 15 15 15 18 18 19 19 21 21 19 14 15 17 16 15 13 12 11 11 15 16 15 14 14 13 13 13 13 12 13 13 12 12 12 12 12 11 12 11 11 10 10 9 9 9 9 9 9 9 9 9 8 8 8 8 7 7 7 7 7 6 6 6 5 5 3 4 3 3
6 3 1 2 3 5 9 10 10 10 12 12 12 13 14 11 11 12 14 15 16 16 16 16 16 19 18 18 15 13 13 16 17 17 17 17 17 19 18 18 17 19 16 14 11 10 9 14 15 13 13 15 16 13 16 13 13 12 12 12 11 11 11 11 11 11 11 10 10 9 9 9 9 9 9 9 8 8 8 7 7 7 6 6 6 6 6 6 6 7 7 7 5 3 2 2 3
3 5 4 1 6 7 5 10 10 12 12 13 13 12 11 12 13 14 13 16 15 16 17 16 16 16 15 15 12 12 17 16 16 17 16 16 16 17 18 16 17 18 18 17 14 11 11 11 16 14 14 16 16 15 14 14 13 12 11 11 11 11 11 10 10 10 10 10 10 10 9 9 9 9 9 9 8 8 8 7 6 6 6 5 6 5 5 5 6 5 5 5 4 4 4 3 2
2 4 1 2 3 6 4 7 10 10 12 12 12 12 9 12 13 15 15 15 15 15 13 9 12 15 16 14 11 13 16 16 16 15 15 15 15 16 17 14 17 18 19 18 16 13 12 11 11 13 13 14 14 13 13 12 12 11 11 11 11 10 10 10 10 10 9 9 9 9 9 9 9 8 8 8 8 7 7 7 6 5 5 5 4 4 4 5 5 4 4 3 3 2 2 2 2
6 6 2 5 8 6 4 8 7 8 10 10 10 9 10 12 13 11 13 13 13 15 14 15 14 11 14 12 10 14 14 16 16 15 14 15 14 11 13 16 16 17 17 17 17 15 14 11 10 9 11 13 13 13 12 12 11 11 11 11 10 10 10 10 9 9 9 9 9 8 8 8 7 7 6 6 6 6 5 5 5 5 5 4 4 3 3 4 4 4 3 3 2 1 2 2 3
7 10 6 10 8 8 7 5 8 5 8 9 9 12 10 10 10 9 12 16 14 13 12 13 12 15 16 14 12 11 12 15 16 12 13 14 14 13 14 13 16 16 16 16 16 15 14 12 11 10 10 10 9 10 12 11 11 11 11 10 10 10 9 9 9 8 8 8 7 7 7 7 6 6 5 5 5 4 4 3 3 3 4 4 4 4 3 4 3 3 3 4 4 4 5 5 5
8 4 7 7 9 8 10 4 3 6 9 8 9 11 10 9 11 10 15 15 14 13 14 12 15 11 9 12 12 12 14 16 17 12 15 14 14 14 15 12 14 14 13 15 14 15 14 13 12 11 10 10 10 8 7 10 11 11 11 10 10 10 9 9 8 7 7 7 6 6 6 6 6 6 5 4 4 4 4 3 3 4 4 4 3 3 3 4 4 4 5 5 6 6 7 8 8
7 7 6 1 6 9 9 6 4 8 8 9 10 13 12 10 8 11 11 10 10 12 12 9 10 9 14 12 15 17 17 15 16 15 15 16 15 13 13 12 12 12 12 12 12 11 13 13 11 10 10 10 9 8 8 9 10 11 10 10 10 9 9 8 8 8 7 7 7 6 6 5 5 4 5 4 4 4 5 5 5 5 5 4 4 4 4 4 5 5 6 7 8 8 8 9 10
7 4 7 2 0 7 14 8 2 7 9 11 11 10 10 11 12 12 11 11 10 6 8 7 13 15 13 14 18 19 17 15 14 16 15 12 10 10 9 10 9 10 9 10 9 10 12 12 12 10 10 10 10 9 8 8 9 11 9 10 10 10 9 10 9 9 7 6 6 6 5 3 3 3 4 4 5 4 4 6 5 4 5 5 6 6 5 6 6 6 7 8 8 8 9 10 10
3 7 7 5 3 6 7 16 11 9 11 10 10 9 10 11 10 10 8 9 10 9 12 13 14 15 17 18 18 18 17 17 15 15 13 12 9 10 10 9 9 9 9 9 9 10 10 9 11 10 8 8 7 7 7 7 8 10 8 8 8 8 8 8 7 6 7 4 7 4 3 3 2 1 2 1 2 2 4 6 7 6 7 7 7 8 7 7 8 8 8 9 9 9 9 6 7
6 2 7 7 7 9 6 9 10 11 11 10 9 10 11 12 12 10 6 11 11 12 14 16 18 18 19 18 18 17 17 16 15 14 14 13 10 10 9 8 8 9 9 8 8 10 8 8 9 11 12 10 9 7 5 6 9 7 7 7 6 8 7 7 6 5 3 2 2 2 1 1 0 0 1 2 2 4 4 5 8 9 8 8 9 10 9 9 9 9 10 10 9 10 6 5 5
2 5 6 6 7 8 9 10 11 12 10 11 11 9 9 10 12 12 7 5 11 12 12 14 16 19 18 18 17 16 16 16 15 14 13 12 13 12 10 10 9 9 9 8 8 7 9 8 8 8 10 9 9 7 6 5 7 6 4 3 1 5 3 4 4 3 3 4 4 2 2 1 1 1 2 4 4 2 2 6 9 9 8 6 10 11 10 11 11 10 12 9 9 5 5 4 5
3 4 6 5 4 8 7 8 9 10 11 10 9 9 10 9 10 10 13 13 8 10 12 15 17 18 19 18 17 15 15 15 14 14 13 11 10 8 9 9 8 8 7 7 8 7 8 8 8 8 7 7 6 6 6 3 4 5 4 4 5 2 4 1 4 4 3 2 3 3 3 2 2 2 1 2 2 1 1 2 4 2 2 6 10 7 6 5 7 6 5 6 5 5 2 4 4
9 3 7 7 7 8 10 10 9 12 9 9 8 10 10 9 10 15 12 4 5 8 13 16 17 18 18 18 16 15 14 14 13 13 14 13 12 10 9 9 9 6 8 8 8 9 8 8 8 7 8 6 5 6 6 7 5 4 5 4 4 4 4 4 3 2 2 0 2 2 1 3 2 1 0 2 3 3 0 1 2 4 3 6 5 5 5 5 3 4 3 2 1 2 2 3 7
3 5 5 8 9 11 8 9 8 10 10 10 9 11 10 11 8 12 14 3 6 11 16 16 17 17 16 16 16 15 14 13 12 12 11 13 12 11 10 9 10 9 7 6 8 6 8 8 7 7 8 5 5 4 5 5 7 5 7 6 7 6 5 4 4 3 2 1 3 5 3 2 1 0 2 3 2 4 1 2 2 2 3 5 2 3 4 4 1 2 2 2 1 3 3 3 6
7 8 4 6 8 10 8 8 9 10 10 12 11 9 10 10 12 9 15 17 9 14 16 17 17 17 16 16 14 15 14 13 12 12 11 11 9 13 10 9 8 8 7 10 7 8 7 9 8 7 6 6 5 5 4 3 3 9 9 9 6 6 6 5 3 4 5 5 6 5 3 3 3 2 3 1 1 3 4 3 5 4 4 3 0 3 4 2 1 3 3 3 4 2 1 2 4
8 6 7 10 10 8 8 11 9 8 10 10 12 13 12 11 11 9 11 13 13 15 15 17 17 16 15 15 14 14 13 13 11 12 10 9 8 11 10 9 9 8 6 9 8 8 9 8 8 9 8 6 5 4 4 4 4 3 5 4 3 6 5 6 3 3 4 3 3 3 4 5 2 3 4 4 3 4 5 5 4 4 4 4 4 3 2 0 2 3 0 3 3 2 1 2 4
6 8 8 9 7 10 11 9 9 10 8 11 12 14 13 13 13 12 10 12 14 14 15 16 16 15 14 14 14 11 10 13 11 12 10 9 9 10 9 9 8 8 7 7 7 6 8 8 9 9 8 6 5 6 4 3 2 3 3 4 3 4 3 6 12 8 4 5 6 5 7 6 6 4 5 7 8 10 7 5 5 4 4 3 3 2 1 1 1 2 2 2 1 5 5 6 6
10 6 10 11 8 9 8 11 11 9 11 12 12 13 13 12 8 10 10 11 13 14 15 14 14 14 13 13 13 11 11 12 11 10 10 9 9 9 9 10 9 8 8 8 6 5 7 8 9 8 7 6 5 5 3 3 3 2 3 2 3 3 3 3 4 9 13 13 9 10 8 4 3 4 7 8 7 6 4 4 5 3 3 2 2 2 2 2 3 2 2 2 4 4 5 7 7
9 10 10 11 9 8 9 11 11 10 11 13 12 13 12 13 9 9 11 11 12 14 14 13 13 12 12 13 12 9 8 9 8 10 11 10 7 7 7 8 8 8 8 7 6 5 6 8 9 7 7 6 4 5 3 2 3 2 2 1 2 3 3 2 3 2 2 5 8 8 6 5 4 0 0 3 3 3 3 4 4 3 4 3 3 3 2 2 2 2 3 4 2 1 2 4 4
11 11 10 9 9 9 7 9 11 10 10 12 11 13 10 9 11 11 10 12 11 12 13 13 13 11 12 12 11 9 8 9 7 8 9 8 8 7 7 8 7 8 7 8 6 8 9 8 7 10 8 7 5 5 3 3 3 3 2 2 3 3 3 3 3 3 3 3 4 6 7 5 4 4 3 2 2 3 3 4 4 4 3 3 4 5 4 3 3 3 4 2 3 1 2 3 5
9 8 8 9 9 8 10 7 8 9 10 10 4 6 8 11 13 12 12 10 13 12 11 12 11 11 11 11 10 10 9 9 8 8 7 8 8 8 9 9 8 7 7 6 6 8 7 7 6 7 8 9 7 5 3 2 3 2 2 3 2 2 2 2 4 5 3 3 3 5 5 5 4 4 4 3 3 3 4 4 4 4 3 4 4 3 3 3 3 3 4 2 3 3 3 4 5
9 9 9 8 8 7 9 7 8 9 8 9 6 3 7 12 13 12 12 11 11 11 11 12 11 11 11 10 10 9 11 8 9 8 9 9 9 8 8 7 7 6 6 7 7 6 5 4 5 4 7 6 7 5 4 3 3 2 2 2 1 2 2 2 3 2 4 3 3 3 4 5 4 3 2 2 3 4 4 5 1 2 2 6 5 5 3 3 3 4 3 3 3 3 4 5 5
8 6 6 3 3 6 9 10 9 8 5 4 6 5 8 12 12 14 12 13 10 10 10 11 11 11 11 10 10 9 10 8 8 9 9 9 9 6 7 6 5 5 4 6 7 6 5 2 3 4 6 8 6 5 4 3 2 1 2 2 1 2 2 3 2 2 3 2 2 1 3 3 4 2 3 4 3 3 3 3 2 4 3 4 5 5 6 5 4 4 4 4 4 4 4 5 3
8 7 9 9 6 7 9 12 9 9 9 8 7 4 10 11 12 15 14 14 15 13 11 11 12 12 11 10 9 9 10 9 8 9 9 8 6 5 6 6 7 6 6 5 6 5 4 5 3 5 5 5 5 5 4 3 2 2 3 2 3 2 2 2 3 3 3 2 3 4 4 5 7 5 2 1 1 4 3 3 5 5 4 3 3 5 5 5 5 6 3 4 5 4 5 7 6
8 9 6 8 10 5 7 13 8 11 8 10 8 6 10 12 13 13 14 14 13 13 14 12 11 11 11 10 10 9 10 9 10 9 10 8 6 7 8 7 8 7 6 7 7 6 5 4 4 4 4 5 4 4 4 4 3 3 3 3 2 2 3 3 3 2 3 2 2 3 3 2 2 2 4 4 2 4 4 5 5 5 4 4 5 6 5 4 4 4 5 4 4 5 5 4 5
11 11 11 10 9 12 10 8 10 6 6 3 9 4 11 13 13 13 13 15 13 13 12 13 12 11 11 11 10 11 10 10 9 8 10 7 9 8 8 8 8 8 6 8 6 6 5 5 5 4 5 5 6 4 4 4 4 3 2 2 2 2 2 2 3 3 3 2 3 2 3 3 2 2 3 3 4 4 5 5 6 7 5 5 5 5 5 5 5 4 6 6 5 6 6 5 5
14 14 13 8 9 12 5 9 10 13 12 13 7 6 11 13 13 13 12 14 14 12 13 13 13 13 12 11 11 11 11 11 9 8 10 9 8 9 9 9 8 8 8 7 7 7 6 5 5 4 4 4 5 5 3 3 3 2 1 1 2 2 2 2 1 1 2 5 3 2 4 5 2 1 2 3 4 4 4 4 5 5 5 5 4 5 6 5 6 7 7 8 7 6 5 5 5
14 17 8 11 11 11 14 14 10 9 7 7 12 8 9 11 13 13 13 11 12 11 14 12 13 12 13 12 12 11 12 12 12 13 14 11 12 9 9 8 7 8 8 8 8 8 6 6 5 5 4 3 5 3 2 1 1 2 2 2 1 1 1 3 4 2 3 2 3 3 2 2 2 3 2 2 3 4 4 5 4 5 3 3 4 5 7 9 6 5 6 5 8 6 4 5 6
14 10 8 13 12 9 15 14 11 10 9 8 9 12 10 11 12 13 12 11 12 12 13 13 14 13 13 13 15 13 11 11 14 12 13 13 11 12 10 8 9 9 7 8 8 8 6 4 4 5 2 4 3 3 2 0 0 3 3 3 2 1 1 2 5 5 5 5 7 6 4 5 3 4 3 3 3 4 4 4 4 4 4 4 4 5 7 7 8 8 5 6 4 5 5 6 6
15 9 11 10 12 9 15 12 10 10 8 4 9 8 10 10 12 12 13 12 9 11 13 12 12 14 11 12 14 14 13 13 14 14 14 12 13 13 10 9 9 10 10 9 8 9 7 6 5 6 3 3 2 4 3 3 1 3 4 3 3 3 5 3 1 3 2 3 3 2 4 4 3 1 2 2 3 4 4 4 4 4 5 4 4 4 2 5 6 6 6 6 6 5 5 5 5
9 11 10 9 8 10 11 10 13 11 7 6 7 7 8 13 11 11 12 12 11 11 14 12 12 13 12 13 13 14 14 14 16 15 16 14 13 12 10 9 9 9 8 8 8 7 6 6 6 5 5 6 7 7 5 5 6 2 1 1 1 1 2 2 2 3 3 3 1 2 3 6 4 3 4 4 3 3 3 4 4 5 5 5 5 6 5 4 1 3 4 6 6 7 5 5 4
11 12 10 8 13 12 10 12 13 11 12 6 8 7 5 9 8 8 10 11 11 12 12 11 11 12 12 13 14 14 14 14 14 15 15 14 12 12 11 9 10 9 9 8 8 7 6 7 7 7 6 5 4 5 4 4 4 3 2 1 2 1 2 1 3 3 3 4 4 3 6 4 5 3 3 3 3 3 3 3 4 5 5 5 5 4 2 2 2 3 5 5 5 5 6 5 4
9 14 16 13 7 11 15 19 15 9 9 10 10 6 7 5 1 5 5 9 10 11 11 12 10 12 12 13 13 14 14 15 13 14 14 14 14 12 11 11 10 9 9 8 8 9 7 6 7 6 5 5 5 5 4 3 3 3 2 1 2 1 2 2 2 2 3 4 6 7 5 4 4 4 3 3 5 5 4 4 4 5 5 5 5 4 2 2 5 5 5 5 5 3 3 3 6
10 12 17 20 11 14 17 23 13 10 8 12 13 9 7 6 7 7 5 7 11 10 12 14 11 9 12 10 11 14 14 15 14 14 14 15 12 12 13 11 10 10 10 9 9 8 8 7 7 6 5 5 5 4 4 2 4 1 2 2 2 1 1 0 2 3 2 2 2 3 2 4 3 4 4 4 4 4 3 3 4 4 5 5 5 5 5 4 3 2 1 2 1 1 1 3 5
11 11 17 11 14 15 16 15 14 8 8 9 17 12 8 9 10 13 9 8 8 10 12 12 13 13 13 13 13 12 14 15 14 14 14 13 12 12 12 11 9 9 10 9 8 8 9 8 7 6 5 5 4 4 4 3 3 2 2 1 2 2 2 2 1 3 2 0 2 3 3 2 2 2 2 3 4 4 3 3 3 3 4 3 1 3 4 4 3 2 2 2 1 1 2 4 6
10 7 14 14 12 15 16 5 13 10 8 9 11 16 9 7 13 16 14 14 15 17 16 13 10 14 13 14 14 14 15 15 16 14 14 12 13 12 12 11 10 9 10 10 9 8 8 7 7 6 6 5 5 5 4 3 3 3 2 3 1 1 2 2 2 2 3 2 3 2 2 2 2 2 3 3 3 3 3 3 3 3 3 4 2 3 3 4 3 5 3 1 1 2 3 4 4
14 7 9 10 14 13 9 7 9 8 7 8 7 11 9 8 12 14 17 17 18 17 16 16 14 13 13 14 14 14 13 11 15 15 14 12 13 13 13 12 11 11 10 9 10 9 8 6 7 7 7 6 5 5 4 4 4 3 2 3 2 1 2 1 1 2 2 1 2 3 2 2 3 3 4 3 3 3 3 2 2 4 4 4 3 4 5 5 4 5 4 3 4 5 4 5 5
13 11 15 15 16 6 5 8 8 7 10 7 13 12 12 9 9 13 13 14 14 14 12 12 14 16 16 15 16 14 13 12 13 14 13 11 13 12 14 13 10 11 10 11 11 10 8 7 7 7 7 6 6 5 4 5 4 3 3 1 0 1 0 1 1 2 2 2 2 2 2 3 3 3 3 3 3 4 2 4 4 4 4 4 4 3 3 3 4 4 3 3 4 5 3 4 4
14 5 9 7 1 3 5 8 8 9 9 8 13 12 15 11 6 8 15 19 19 16 16 16 17 16 15 15 16 16 14 12 13 13 13 13 12 13 14 13 11 13 12 12 11 10 8 8 7 8 7 6 6 5 5 5 4 4 2 2 2 1 1 1 2 2 2 3 2 2 2 3 3 3 3 4 3 5 3 3 3 3 3 3 4 3 3 3 3 3 4 4 5 6 5 7 5
13 11 13 11 6 5 8 8 10 9 9 9 14 12 12 11 9 9 12 18 23 18 13 15 17 16 16 18 17 14 12 16 14 11 11 13 13 14 14 13 12 14 12 12 12 12 10 8 9 8 7 7 6 6 6 5 5 4 4 4 2 1 0 2 1 2 2 2 2 2 3 3 3 3 4 3 4 4 4 4 3 3 3 3 3 4 4 4 3 3 3 3 3 5 3 5 5
10 10 6 8 9 8 7 7 6 7 10 13 11 13 12 6 9 10 10 9 14 13 14 13 21 20 17 16 17 17 15 16 14 14 13 12 13 13 13 12 12 12 13 13 12 11 9 9 9 8 8 7 6 6 6 6 5 4 4 3 1 2 2 0 0 1 1 2 1 2 2 3 4 4 4 4 4 5 4 4 4 4 4 3 3 3 5 5 3 3 3 3 4 4 3 3 3
9 8 10 10 9 7 9 7 10 10 9 10 17 12 6 10 1 8 9 10 16 11 12 8 7 17 13 16 16 18 17 14 13 13 14 13 14 13 14 13 13 12 14 14 12 11 10 10 9 9 9 8 7 7 6 6 5 4 4 3 2 3 1 1 1 1 1 2 2 2 2 2 3 3 3 3 3 4 4 3 4 4 4 3 2 2 3 4 3 4 3 4 4 4 3 3 3
12 10 12 13 10 5 10 6 9 8 8 8 5 7 4 6 2 1 6 10 9 11 7 10 6 10 10 9 13 15 14 14 15 14 14 13 13 12 13 14 13 12 13 12 12 11 12 10 10 10 10 9 8 8 7 6 5 5 4 5 4 3 3 2 2 2 3 4 1 2 2 3 3 2 2 3 4 4 3 4 4 4 4 4 3 3 3 3 3 5 4 4 5 3 3 4 4
12 12 13 13 12 13 8 9 12 12 8 8 4 6 8 2 4 8 11 9 6 2 3 5 7 6 11 9 9 6 11 11 14 14 12 14 14 12 14 15 14 13 12 12 12 12 12 11 11 11 10 9 9 8 7 6 6 5 5 5 4 3 3 4 4 3 2 2 2 2 2 3 3 3 3 2 3 3 3 4 4 4 4 3 3 3 2 3 2 3 3 4 5 4 3 3 4
8 12 12 13 16 10 6 8 6 9 9 8 10 11 9 9 7 9 11 10 8 6 3 5 7 7 5 10 12 14 15 11 15 13 11 14 14 14 14 15 15 14 14 11 12 12 11 11 12 12 10 10 10 9 8 7 6 5 5 4 4 3 3 2 2 2 2 2 2 3 3 3 2 3 3 3 3 3 3 4 4 4 4 4 4 4 3 2 3 3 3 3 3 3 4 3 3
14 12 13 12 11 12 9 6 8 8 9 8 7 10 11 6 2 8 13 11 10 10 7 7 9 9 8 7 9 14 14 9 9 13 12 14 14 15 12 14 15 13 11 10 11 12 12 11 11 13 12 11 10 9 8 6 5 5 4 4 4 4 3 2 2 1 0 2 3 3 4 2 3 3 2 2 2 3 3 3 3 4 4 4 3 3 2 2 2 3 3 4 3 3 3 3 3
17 14 11 8 8 9 9 7 6 4 8 5 8 8 5 4 5 11 16 11 10 12 10 9 8 10 11 6 6 8 13 14 14 15 15 14 17 18 18 17 16 14 12 12 15 13 15 14 12 12 11 10 10 9 8 6 6 5 5 3 3 3 3 2 3 2 3 3 2 2 4 5 3 2 2 3 3 4 4 4 5 5 5 4 4 4 3 3 3 3 4 4 3 4 3 4 4
12 12 10 7 8 6 7 5 9 8 9 7 5 4 4 6 8 15 12 7 7 6 9 7 3 3 8 9 8 4 12 13 15 16 15 15 16 17 16 15 13 12 11 13 14 15 15 14 14 14 12 13 12 9 7 6 5 5 4 5 4 4 4 4 5 4 4 4 3 4 3 5 5 3 3 4 4 3 3 4 5 5 5 5 4 4 3 3 3 3 3 3 4 4 4 4 4
13 11 11 11 11 9 9 9 10 10 7 4 4 5 6 6 6 10 10 8 9 5 3 6 6 5 1 6 8 5 6 14 11 13 16 17 14 15 15 12 10 12 14 15 13 14 15 15 14 14 14 13 13 9 7 6 5 5 6 6 5 4 5 4 5 4 4 3 4 5 5 4 5 6 5 4 3 4 3 3 5 5 5 6 5 5 5 3 3 3 3 4 4 4 4 4 4
Wind_Direction
254 236 236 224 227 251 257 213 272 192 205 88 80 76 81 81 74 84 78 89 75 55 64 78 74 64 61 76 72 62 48 47 28 80 106 134 161 168 149 136 134 125 119 121 124 123 123 125 118 116 114 117 116 115 116 117 115 112 110 107 106 104 105 106 106 105 107 108 106 106 106 105 107 108 110 111 110 110 108 106 105 104 101 98 96 92 92 90 88 89 89 89 90 90 91 93 93
242 249 241 237 226 256 271 135 275 88 78 70 58 60 66 73 77 68 72 68 63 83 87 86 84 85 93 94 88 76 58 64 71 84 97 123 149 144 143 140 131 122 121 123 125 120 122 124 120 121 116 108 107 118 120 118 117 113 110 109 107 107 108 108 108 108 107 106 104 103 102 101 102 104 105 106 104 103 103 103 101 100 99 97 95 93 93 93 91 88 85 82 80 80 83 86 87
262 266 264 231 252 229 245 265 295 78 78 75 74 72 83 74 75 75 72 76 83 94 88 76 83 84 82 77 69 73 86 84 90 97 113 139 133 140 139 131 120 119 116 114 116 118 121 124 126 127 123 116 108 114 119 117 118 118 114 112 111 110 109 110 110 109 108 103 101 99 97 96 97 100 100 100 100 100 101 102 101 101 102 100 97 98 97 96 94 91 89 85 81 79 77 79 83
275 277 262 60 287 240 285 239 75 81 80 82 87 74 74 83 88 96 106 103 81 62 76 91 83 82 89 87 93 88 89 88 101 115 123 139 135 156 129 125 130 123 120 122 120 113 117 129 130 128 122 119 117 107 121 120 120 120 119 117 116 115 114 111 110 108 105 101 100 100 99 99 99 99 99 99 100 100 99 103 105 104 104 103 101 101 103 101 99 94 89 87 84 84 81 80 82
255 261 259 273 314 266 246 100 101 84 84 84 84 85 86 85 81 82 84 87 94 92 85 84 83 71 65 73 82 86 92 95 94 108 117 114 125 135 146 139 133 127 121 122 117 116 122 127 128 125 123 121 119 115 124 124 125 125 124 122 121 117 115 113 110 107 104 102 100 101 101 103 104 105 104 104 103 106 107 106 108 109 107 106 104 104 103 101 97 92 90 91 92 93 96 93 88
244 247 230 213 224 338 262 116 82 82 88 97 104 85 79 86 96 88 80 80 85 83 76 79 78 79 75 70 91 106 122 96 114 108 122 133 137 138 131 126 126 122 123 121 118 121 129 130 126 124 123 119 120 125 137 134 132 131 131 127 123 121 118 117 114 110 108 106 106 105 105 107 110 111 111 111 112 112 113 114 114 116 112 107 107 104 101 98 95 96 93 93 96 96 102 104 101
286 315 276 217 237 238 107 98 92 93 86 90 85 95 99 90 83 85 84 84 78 88 94 103 113 108 94 91 80 81 97 112 111 118 125 126 125 130 131 129 126 123 127 124 119 119 130 130 128 127 128 125 128 139 140 135 137 137 134 129 125 124 121 119 116 115 115 113 114 115 116 116 117 117 116 116 115 115 117 116 113 111 109 105 100 97 95 95 96 99 103 99 99 105 108 106 106
273 289 320 343 333 260 99 85 84 84 89 88 89 92 103 116 115 109 107 102 111 107 106 94 77 83 78 75 82 84 91 88 102 110 118 121 126 126 127 130 126 128 123 119 119 120 128 130 131 134 131 128 135 138 138 140 145 140 135 132 130 127 125 122 119 119 118 118 118 119 122 123 122 121 119 119 122 123 119 116 112 107 105 104 101 99 98 97 98 95 97 100 101 107 101 98 98
236 249 178 268 261 120 82 64 77 75 86 84 79 67 66 70 73 86 92 99 106 101 105 110 106 93 95 90 86 98 99 104 109 115 119 121 129 133 126 125 123 122 121 120 121 123 124 129 129 132 130 131 135 143 144 151 153 141 139 135 133 129 127 124 124 124 123 122 124 125 125 126 124 124 125 127 127 126 123 120 118 115 113 110 107 103 99 98 96 96 94 100 102 103 119 104 113
338 316 241 302 6 45 70 106 102 98 97 96 110 109 97 104 102 91 91 75 67 79 78 85 94 99 107 98 105 103 104 113 112 114 113 117 122 120 123 122 123 122 122 121 121 117 120 125 129 132 138 144 149 160 151 157 148 141 139 136 133 132 126 127 126 127 128 129 130 132 133 130 134 133 135 134 133 128 125 124 123 120 114 110 105 107 103 98 94 90 87 78 70 64 88 134 153
261 207 257 359 7 24 53 98 105 114 100 95 87 95 112 100 88 88 85 88 89 92 101 112 110 102 101 99 91 110 116 118 118 112 117 116 117 121 119 126 126 125 124 126 125 122 128 131 135 140 148 150 151 151 151 150 146 142 140 138 133 132 131 130 132 132 134 135 138 140 141 141 140 144 143 143 141 138 138 135 136 137 126 118 119 108 111 108 97 96 92 81 76 71 71 76 75
302 283 355 150 143 107 186 89 93 100 111 118 99 85 79 105 121 104 104 110 120 114 102 100 94 107 102 110 115 123 126 117 111 110 113 117 113 116 121 126 123 125 124 124 126 132 134 135 137 141 142 144 146 150 148 146 145 141 138 135 136 135 136 137 138 137 139 142 146 147 147 147 147 148 148 149 146 146 143 146 145 140 135 130 122 126 119 114 112 104 99 91 76 89 118 118 134
268 286 229 97 68 63 21 98 63 65 96 87 107 105 92 88 86 98 96 102 99 97 95 100 120 121 112 106 114 118 117 117 117 120 123 118 111 102 111 115 117 118 122 128 130 131 136 141 139 141 142 145 148 151 149 147 145 142 140 141 141 142 143 140 141 143 143 149 150 152 147 146 146 145 151 147 152 148 150 149 155 152 150 150 144 135 141 127 136 137 134 134 142 156 197 199 202
255 275 194 120 160 108 48 316 134 156 92 115 106 100 101 85 78 107 127 102 97 98 119 124 106 98 101 121 130 128 123 120 111 116 113 101 111 115 105 112 119 122 125 126 129 138 140 142 143 143 146 152 150 150 151 151 149 147 148 148 145 145 145 145 142 147 151 149 152 151 150 148 154 157 161 166 158 159 155 165 172 173 174 170 162 162 169 152 165 165 178 199 198 209 223 232 226
279 345 291 137 159 109 148 128 251 112 97 83 83 99 111 114 120 98 87 101 102 130 110 103 122 131 135 139 134 132 131 127 123 129 115 116 110 111 118 116 115 120 127 129 136 139 143 144 141 146 156 154 155 157 156 157 155 155 153 151 150 149 150 148 150 150 157 155 157 160 162 165 166 173 174 186 178 172 181 197 210 205 206 202 173 162 161 168 182 199 211 215 223 220 230 238 241
276 275 272 118 110 154 151 158 179 99 116 125 106 102 98 97 106 111 105 104 109 117 129 115 190 108 141 130 125 130 131 131 126 129 117 118 115 120 122 120 126 126 126 135 138 140 141 143 145 156 159 157 163 159 157 157 160 160 157 152 155 155 153 156 158 161 165 172 173 176 176 181 184 182 194 200 209 209 206 226 210 219 229 215 195 196 198 192 198 209 219 230 229 232 237 245 248
221 247 300 179 298 136 159 157 152 117 113 115 142 124 107 96 78 82 103 121 129 137 109 109 97 130 133 121 125 128 129 123 125 118 116 117 131 126 125 126 130 133 134 138 143 142 142 145 155 153 161 160 164 157 156 158 163 160 158 161 162 166 169 168 171 171 174 187 187 188 193 215 201 205 190 222 210 229 231 230 261 240 247 240 230 228 221 222 218 217 229 232 242 245 246 253 257
280 264 222 43 76 88 58 121 156 127 125 134 117 105 123 119 123 105 117 102 107 127 114 113 115 99 110 118 125 127 125 132 130 128 131 131 133 134 135 136 139 141 139 139 142 146 141 148 148 157 148 155 172 156 161 160 158 170 167 167 170 174 179 177 175 182 186 187 200 192 207 222 176 352 16 274 296 259 252 251 254 255 248 247 240 243 239 237 234 238 237 239 246 253 257 263 260
246 213 354 77 31 35 110 130 129 150 127 129 112 130 112 108 120 61 74 131 113 101 94 97 102 109 115 125 127 131 138 134 140 139 143 138 132 137 137 141 141 145 145 143 146 151 149 150 153 161 158 160 164 154 161 161 160 175 174 169 175 184 184 184 184 189 202 153 223 207 200 312 17 114 181 232 238 265 264 274 258 258 271 290 307 290 264 261 260 255 250 249 246 250 257 257 268
20 293 132 100 48 75 70 90 92 94 125 125 134 120 127 143 119 135 142 75 117 120 120 120 121 126 131 132 135 142 143 142 141 147 143 144 141 148 149 145 149 148 147 149 147 152 153 154 157 155 150 164 155 166 167 159 159 177 154 144 346 180 178 192 165 168 170 178 199 200 167 194 294 125 271 258 251 272 273 267 265 268 266 271 263 254 248 255 249 252 254 260 256 255 251 250 257
76 349 57 64 149 136 104 107 114 132 111 106 106 135 128 139 95 149 148 150 140 132 133 136 136 136 136 138 143 144 145 145 148 150 142 141 141 146 143 145 145 149 144 145 147 154 155 155 155 151 157 160 164 154 154 145 171 160 128 122 209 174 159 176 176 173 179 165 223 165 195 217 181 203 213 330 291 289 42 360 58 327 272 258 254 237 236 222 223 210 219 215 229 243 252 266 269
126 83 124 109 97 96 111 114 122 86 97 115 130 102 74 67 94 82 68 23 132 143 132 135 136 136 140 144 144 150 149 149 153 153 142 153 158 149 144 143 135 139 139 155 153 156 162 157 161 152 160 165 176 162 159 164 176 141 137 176 182 192 159 170 138 123 69 88 265 233 186 187 190 241 204 123 341 312 197 109 163 179 238 259 246 277 265 239 216 203 197 221 210 259 247 298 280
97 86 71 91 79 87 83 81 116 157 136 125 111 87 100 102 108 87 90 111 251 130 127 132 135 138 139 142 149 147 151 154 155 154 152 151 157 147 150 150 143 153 163 150 147 161 158 165 154 160 158 171 179 191 155 171 167 134 129 210 185 168 174 166 164 118 140 227 238 235 198 176 173 86 52 39 305 276 350 77 316 263 254 255 227 247 260 273 322 216 191 155 119 299 302 318 301
63 94 107 107 141 106 115 129 86 71 72 81 95 121 103 109 99 127 144 179 136 115 124 130 136 137 139 146 151 150 151 161 161 149 169 148 158 142 159 149 155 145 164 139 155 163 168 163 158 176 154 175 174 194 184 157 187 150 177 176 180 171 169 150 142 175 159 193 227 221 195 130 167 160 114 144 276 312 308 243 178 232 243 271 86 228 265 318 157 235 197 169 148 156 307 276 291
108 108 108 97 96 124 127 87 88 113 123 137 109 92 92 85 87 100 95 109 118 119 128 133 134 140 143 144 148 147 156 158 165 149 165 144 178 145 162 138 153 141 174 140 158 170 165 162 163 171 166 177 182 186 208 156 197 185 151 169 174 166 180 123 113 333 320 262 225 223 197 183 169 133 104 69 358 300 261 257 247 205 222 231 219 242 241 165 299 291 236 190 147 133 118 314 297
143 125 136 124 132 133 94 127 117 85 92 92 96 101 105 106 111 94 108 113 117 125 130 134 139 141 144 148 140 145 166 154 169 151 164 147 180 148 172 145 151 153 159 148 160 160 158 167 175 176 174 178 181 193 202 182 175 213 162 173 135 182 189 140 159 162 210 262 255 220 211 194 161 165 162 162 197 223 216 232 240 239 221 209 186 229 184 192 204 239 241 293 192 159 187 199 190
102 151 137 146 130 113 141 109 110 118 102 111 114 117 115 128 125 109 105 118 132 136 133 137 147 143 147 147 141 152 178 151 171 152 154 163 179 156 177 150 157 154 158 159 161 172 152 177 173 182 165 174 194 197 191 193 186 188 173 204 164 179 193 197 173 167 165 194 203 173 215 193 184 183 171 169 179 188 189 204 239 243 253 226 206 219 194 222 221 242 248 226 207 205 217 196 189
149 150 137 114 161 140 111 106 112 145 122 123 134 129 126 104 111 114 128 129 142 142 140 150 144 151 147 139 141 163 189 144 180 161 160 164 180 157 186 147 162 158 157 174 164 163 175 186 173 172 172 172 190 201 188 200 197 206 182 190 216 202 174 208 222 158 206 162 166 176 167 174 165 103 288 168 159 177 201 205 211 228 237 231 222 214 220 227 245 251 254 256 231 171 274 291 270
133 148 142 148 158 133 137 155 147 107 139 131 130 118 111 127 105 130 133 143 140 145 151 151 148 149 140 140 147 179 163 162 164 180 155 169 168 160 187 150 172 161 159 174 179 167 178 197 175 173 174 156 190 206 188 199 190 210 171 212 238 214 183 197 208 217 221 200 177 170 161 178 150 179 185 218 202 206 206 210 226 242 255 241 227 218 200 202 218 236 242 253 273 246 235 238 262
146 163 142 176 169 148 175 111 111 158 99 132 122 132 110 111 129 137 150 150 148 147 153 155 149 150 146 144 155 184 155 176 165 180 168 151 177 165 188 162 182 163 161 164 187 179 188 183 182 171 176 172 185 204 186 195 208 203 201 209 207 202 284 237 196 194 200 196 189 178 179 167 152 169 179 201 195 230 230 219 229 241 253 270 258 227 223 204 216 223 239 261 275 272 263 244 234
167 196 147 178 190 159 150 162 181 143 160 148 184 132 125 126 139 145 140 152 152 155 156 153 155 151 148 156 162 179 153 186 174 170 171 152 181 175 178 161 166 169 147 159 176 172 208 173 166 177 168 163 172 197 188 204 221 235 193 201 284 295 252 266 294 298 155 223 211 192 171 149 157 174 174 162 245 231 253 251 334 343 324 293 277 267 248 240 219 220 205 238 251 258 267 277 269
174 153 194 148 232 172 163 153 199 123 186 100 188 180 136 143 139 152 145 146 160 154 157 158 159 151 159 159 171 170 159 179 178 173 169 171 170 164 161 141 127 115 122 146 167 165 186 161 142 160 162 151 176 176 182 200 234 280 322 339 318 273 270 286 315 285 298 241 265 199 112 136 91 162 191 176 221 262 270 290 166 201 213 251 262 260 253 257 248 226 202 204 245 253 260 269 276
164 178 188 176 148 210 191 153 194 138 165 130 247 112 140 146 152 153 158 153 150 161 164 175 158 161 155 160 172 164 165 173 181 181 171 174 137 130 124 128 133 141 155 155 151 174 173 161 160 171 164 171 159 164 178 190 198 203 229 245 255 238 270 286 274 323 297 330 9 23 49 106 151 174 144 155 218 268 278 280 285 275 222 221 272 279 258 250 256 258 225 207 214 245 245 258 262
172 175 221 180 169 206 226 150 194 169 184 160 159 209 146 137 160 163 159 157 155 164 159 170 163 157 165 160 172 170 166 172 180 177 161 151 145 149 151 156 156 162 159 158 161 174 168 150 173 187 154 176 155 153 173 186 187 196 214 233 218 281 262 265 281 301 321 6 279 83 59 65 111 158 152 182 183 244 257 263 267 251 214 197 216 227 252 270 267 268 265 244 228 228 242 253 270
181 174 220 181 191 180 232 167 186 177 185 132 145 249 131 147 154 175 166 167 165 163 158 168 171 163 167 174 170 171 165 172 173 159 155 140 161 172 161 156 164 170 164 166 166 156 166 159 168 178 171 181 166 171 163 195 196 183 232 222 243 252 272 327 329 341 327 332 327 42 80 23 262 204 195 201 206 221 239 248 252 257 251 248 241 238 236 235 250 261 271 261 248 250 263 262 265
177 203 207 170 207 189 160 228 177 175 179 181 165 222 161 155 163 170 180 183 164 162 162 166 167 168 174 181 168 166 167 171 163 161 146 164 171 172 168 158 172 170 175 158 165 164 165 165 159 157 168 187 142 167 166 181 204 179 197 16 50 291 309 299 291 335 343 307 0 254 176 194 191 177 198 229 248 262 275 268 260 257 258 255 265 262 253 242 234 239 245 259 270 257 241 254 272
198 199 204 168 206 175 163 224 179 197 192 168 158 173 173 167 164 173 180 188 159 171 161 168 163 170 173 177 165 172 178 161 167 175 165 169 176 175 169 168 168 175 177 158 170 168 165 170 156 161 163 170 156 169 146 86 71 95 22 297 271 357 355 353 319 256 269 91 258 228 273 277 203 199 240 264 260 251 250 264 276 279 267 251 257 266 277 265 250 241 249 242 252 265 284 282 268
216 171 202 177 204 199 175 197 190 174 228 162 183 167 171 177 169 173 175 189 171 177 167 175 169 169 177 171 168 169 180 160 165 178 163 171 178 169 175 169 172 185 167 169 175 163 167 122 154 144 236 171 151 97 92 158 73 143 202 215 199 190 226 193 229 222 230 207 199 171 207 225 196 179 183 213 247 264 273 265 267 274 285 273 229 234 253 283 284 274 280 272 257 258 269 268 269
234 261 177 223 186 209 169 189 170 179 206 198 189 199 151 178 180 173 180 185 178 183 170 179 173 167 174 175 164 167 184 167 167 171 168 176 172 180 171 180 175 181 174 180 176 156 159 142 194 153 116 0 27 114 184 164 210 203 175 198 203 205 216 229 325 0 344 295 289 274 226 191 194 166 269 254 243 236 236 250 255 255 261 264 257 243 214 275 280 294 323 309 299 272 280 291 268
309 258 207 204 207 201 170 153 161 193 207 176 212 204 171 195 178 186 183 188 178 192 172 179 177 169 177 180 170 176 180 164 171 169 172 184 180 180 167 182 179 176 178 181 174 161 152 170 172 143 161 185 175 145 197 161 186 216 49 64 350 308 352 320 259 239 227 259 327 265 55 30 42 351 1 0 349 335 337 333 338 331 321 321 313 304 301 290 125 339 295 268 272 288 260 251 260
230 252 262 179 224 200 156 157 175 205 200 228 177 222 196 180 164 199 190 193 189 188 178 187 177 177 179 184 174 179 173 169 171 176 174 178 170 175 171 180 179 173 178 176 158 156 187 172 165 165 178 174 136 145 150 133 134 173 131 145 244 195 220 346 5 344 351 10 322 3 38 30 42 7 358 332 330 331 353 348 331 325 317 308 302 300 289 302 303 243 253 268 268 257 273 283 270
201 237 249 240 233 149 169 162 178 201 195 193 208 198 213 82 131 251 194 191 221 183 188 186 181 179 181 185 180 176 175 173 173 176 176 175 173 168 175 172 182 169 161 166 159 173 175 162 154 160 145 144 142 144 119 106 101 81 132 111 337 80 45 356 12 4 347 7 341 354 353 14 357 13 336 339 350 353 340 336 325 313 308 302 304 311 337 188 203 226 233 234 255 257 288 311 292
219 193 240 260 214 199 174 160 177 186 215 179 205 212 211 142 178 221 320 286 223 203 198 191 180 183 183 193 185 179 182 171 177 182 179 181 170 171 165 171 179 175 161 164 168 165 160 151 152 149 138 119 119 111 115 107 111 48 93 36 39 80 299 178 95 20 352 317 345 325 351 10 346 347 354 338 322 307 306 328 327 315 314 316 332 336 314 297 298 307 303 250 190 201 177 267 267
233 193 198 245 260 217 223 194 174 221 202 219 193 198 224 168 190 207 168 240 284 247 204 200 180 188 192 196 195 175 188 175 180 186 180 180 170 174 168 168 172 169 153 153 158 153 148 154 150 130 123 120 122 130 128 138 121 137 95 149 107 25 318 8 24 262 195 122 13 337 348 299 347 333 307 309 297 300 318 323 321 321 315 317 266 312 317 298 277 279 239 242 239 172 238 256 281
233 256 189 196 253 266 291 201 170 195 205 235 206 191 228 238 176 189 181 204 215 226 219 197 198 186 198 198 203 181 193 175 182 188 182 182 167 169 157 162 170 163 154 153 151 151 148 145 138 133 125 130 136 146 143 132 127 125 136 103 87 351 0 353 349 360 21 341 274 281 301 346 338 315 305 283 274 293 326 315 315 300 296 320 345 281 254 271 284 280 279 246 242 218 208 239 253
234 250 296 227 200 249 252 258 251 219 212 237 235 186 219 232 133 186 185 208 214 216 204 195 199 213 200 202 205 194 187 175 180 189 184 185 166 172 158 160 173 161 148 149 147 150 146 142 144 145 141 145 149 151 153 147 141 122 158 172 195 154 150 304 348 302 270 354 312 304 344 337 343 335 288 311 330 320 284 279 304 323 337 326 338 321 325 333 311 286 297 348 277 240 219 225 235
226 203 229 243 178 186 244 288 294 298 247 232 251 222 208 245 194 186 192 202 208 205 208 202 196 208 207 204 206 202 184 185 176 188 182 179 167 165 160 162 173 142 149 151 154 153 150 151 151 155 154 152 154 150 163 153 151 168 184 163 173 216 284 312 333 303 331 333 323 331 329 0 325 291 333 301 318 300 335 11 343 335 334 330 315 317 284 274 302 312 326 276 264 266 256 264 270
236 264 233 274 6 113 261 233 230 262 261 249 250 232 187 234 214 202 197 194 198 193 203 202 203 196 202 194 205 208 189 183 179 185 178 176 160 164 162 166 160 144 152 158 158 153 154 155 159 162 161 157 157 158 169 160 177 172 201 172 178 179 302 356 304 321 339 326 331 342 342 299 291 316 303 296 283 340 7 352 340 326 328 321 309 314 314 311 311 334 336 356 317 314 349 325 303
190 220 209 232 212 181 216 225 223 223 255 238 245 233 241 242 258 218 201 184 191 194 203 198 196 201 208 200 195 202 186 184 185 180 176 171 166 168 166 161 153 152 160 164 159 161 158 161 167 168 170 159 171 167 171 183 179 177 181 179 162 41 54 223 305 309 289 317 14 329 316 311 321 318 298 316 350 332 8 332 325 323 299 303 307 308 314 314 357 334 335 310 317 310 283 264 309
169 208 253 203 229 200 223 209 234 261 235 243 264 274 270 282 233 219 238 233 183 181 211 214 191 199 197 195 187 196 195 184 186 182 182 172 166 174 158 160 153 158 164 164 159 159 157 166 169 177 173 167 176 171 186 184 182 192 171 157 260 105 191 75 260 253 330 15 321 291 306 318 323 314 328 345 345 334 319 318 312 316 307 303 316 347 326 333 318 300 302 287 287 267 263 299 286
205 210 221 210 227 211 201 231 235 219 247 232 216 228 239 252 33 169 217 203 156 187 194 191 185 182 188 195 183 191 197 181 174 177 181 170 168 169 160 160 158 164 168 168 164 157 157 166 170 180 173 177 176 184 186 188 185 187 157 180 174 155 150 150 117 146 274 253 261 274 278 296 293 290 305 306 308 301 294 305 310 297 302 298 314 313 269 264 307 310 303 316 311 294 325 325 308
199 211 234 239 212 200 234 222 229 237 241 237 223 237 153 216 152 142 28 50 136 166 181 133 120 123 164 195 175 188 199 183 176 178 180 170 169 165 161 159 163 167 170 171 165 157 163 167 173 182 179 176 180 186 187 192 188 166 176 179 178 183 150 135 186 193 219 224 270 345 319 274 264 317 318 297 280 277 302 303 304 299 305 317 303 302 301 297 315 336 321 316 307 326 324 310 309
171 201 223 241 200 205 214 244 257 280 280 257 273 250 225 168 161 235 185 188 160 178 194 153 146 149 149 158 133 203 218 189 170 178 181 166 169 168 163 164 168 172 175 176 168 162 167 166 172 182 180 174 185 185 190 191 183 175 174 177 185 202 181 191 214 223 276 345 279 274 290 303 294 251 247 265 288 303 300 291 290 302 295 291 295 275 285 295 292 235 261 270 279 297 274 287 280
173 199 207 237 283 283 230 249 213 213 249 253 210 224 232 203 253 177 164 181 143 143 228 228 147 141 157 160 165 188 210 188 166 171 172 169 174 168 159 168 173 175 177 173 168 165 168 170 173 177 177 180 183 185 192 184 183 179 173 183 189 189 201 230 239 250 234 224 253 238 251 261 306 344 302 270 276 284 283 291 284 285 287 273 261 263 257 276 274 277 263 269 292 289 289 281 293
236 200 188 212 180 240 251 255 254 243 227 254 236 236 247 235 167 138 146 151 158 157 164 228 146 163 184 204 194 180 186 152 176 175 174 176 172 174 162 170 178 176 171 170 169 168 172 174 176 177 180 182 181 185 189 180 177 176 179 183 189 183 197 222 229 250 17 277 274 260 260 300 312 287 299 302 306 301 285 284 287 277 274 283 287 294 287 276 289 284 284 277 269 283 279 285 285
231 255 253 195 259 243 227 196 262 292 281 238 243 234 263 203 179 152 135 176 174 155 166 183 192 165 170 182 215 191 177 138 187 190 187 179 174 175 173 174 180 177 170 170 175 179 182 180 175 174 178 178 178 185 179 178 174 181 169 169 178 184 204 210 208 206 228 243 264 294 270 255 264 290 289 294 280 274 288 297 298 297 294 293 294 294 294 283 287 269 285 294 290 287 292 290 298
215 236 251 244 229 202 257 149 209 222 245 244 261 236 58 23 112 130 149 156 123 117 147 128 139 288 165 164 177 211 171 177 184 176 183 177 173 179 173 170 170 179 174 175 181 185 186 182 177 179 176 178 181 184 176 174 175 172 184 174 179 188 199 203 206 212 225 227 224 250 257 252 235 228 242 255 266 279 292 286 289 297 297 299 293 284 277 279 271 267 260 269 285 287 290 294 287
213 208 226 243 213 219 197 201 177 228 246 264 258 253 84 76 59 91 112 105 128 90 60 131 171 198 247 143 167 199 203 173 186 147 173 185 182 176 173 168 165 177 184 184 183 187 192 185 179 183 180 181 182 178 175 172 175 176 182 189 197 194 202 199 212 219 225 224 241 235 237 242 233 220 212 234 244 258 262 280 289 291 296 297 298 292 289 289 284 284 290 284 281 288 294 295 299